Weather in Saintes-Maries-de-la-Mer

France     43°27′08″N   4°25′41″E
temp.,
°C
wind,
m/s
gust,
m/s
humid.,
%
clouds,
%
prec.,
mm/h
press.,
hPa
HPBL,
m
28 february, sun
sun2801:00+10nne8127499 0.8 1026366
04:00+9nne91283100 3.9 1025318
07:00+8nne8108295 5.5 1026231
10:00+10ne57750 0.0 1027232
13:00+14se7116915 0.0 1027730
16:00+14sse6116533 0.0 1026591
19:00+12sse7136959 0.0 1027518
22:00+12se7127265 0.0 1029372
1 march, mon
mon101:00+11ene457832 0.0 1029136
04:00+9nne46800 0.0 1028145
07:00+9ne34770 0.0 102994
10:00+11ne34650 0.0 1028214
13:00+14sse34570 0.0 1028523
16:00+13sse576411 0.0 1027437
19:00+12sse487224 0.0 1029257
22:00+11se34732 0.0 1030109
2 march, tue
tue201:00+9nne34761 0.0 1030110
04:00+9ne44750 0.0 1029104
07:00+8ne34741 0.0 1030102
10:00+11ne346149 0.0 1030196
13:00+14se586044 0.0 1031567
16:00+14se696082 0.0 1030444
19:00+12sse347582 0.0 1031117
22:00+11ese128053 0.0 103237
3 march, wed
wed301:00+10nne337552 0.0 103274
04:00+9nne347326 0.0 103194
07:00+9nne347014 0.0 103199
10:00+12ne33540 0.0 1031176
13:00+14sse34540 0.0 1029430
16:00+13s44720 0.0 1028334
19:00+12s23860 0.0 102745
22:00+11sse22910 0.0 102850
4 march, thu
thu401:00+11ese22890 0.0 102760
04:00+10e22880 0.0 102595
07:00+9ene22880 0.0 102392
10:00+12ene228013 0.0 1023224
13:00+13s337628 0.0 1021344
16:00+13ssw447727 0.0 1018385
19:00+11sw349013 0.0 1018131
22:00+11sw338961 0.0 101890